Location: Lancaster
(54.0470°N, 2.8020°W)
Time: 13:04:39
(UTC+01:00)

COSMOS 2428 - Visible Passes

Search period start: 28 May 2015 00:00
Search period end: 07 June 2015 00:00
Orbit: 844 x 857 km, 71.0° (Epoch: 28 May)

Date Brightness Start Highest point End Pass type
(mag) Time Alt. Az. Time Alt. Az. Time Alt. Az.
28 May 4.6 00:44:01 10° W 00:49:03 30° NW 00:54:05 10° NNE visible
28 May 5.5 02:31:51 10° NW 02:35:15 16° N 02:38:36 10° NNE visible
28 May 2.7 22:46:06 10° SSW 22:51:47 80° ESE 22:57:33 10° NE visible
29 May 4.6 00:31:39 10° W 00:36:41 30° NW 00:41:43 10° NNE visible
29 May 5.5 02:19:29 10° NW 02:22:53 16° N 02:26:14 10° NNE visible
29 May 2.7 22:33:43 10° SSW 22:39:25 80° ESE 22:45:11 10° NE visible
30 May 4.7 00:19:16 10° W 00:24:19 30° NW 00:29:21 10° NNE visible
30 May 5.5 02:07:07 10° NW 02:10:30 16° N 02:13:52 10° NNE visible
30 May 5.6 03:53:32 10° NNW 03:57:09 17° NNE 04:00:49 10° NE visible
30 May 2.7 22:21:21 10° SSW 22:27:02 79° ESE 22:32:49 10° NE visible
31 May 4.7 00:06:54 10° W 00:11:56 31° NW 00:16:59 10° NNE visible
31 May 5.6 01:54:44 10° NW 01:58:08 16° N 02:01:29 10° NNE visible
31 May 5.6 03:41:10 10° NNW 03:44:47 17° NNE 03:48:27 10° NE visible
31 May 4.7 23:54:31 10° W 23:59:34 31° NW 00:04:37 10° NNE visible
01 Jun 5.6 01:42:21 10° NW 01:45:46 16° N 01:49:07 10° NNE visible
01 Jun 5.7 03:28:48 10° NNW 03:32:24 17° NNE 03:36:04 10° NE visible
01 Jun 4.8 23:42:09 10° W 23:47:12 31° NW 23:52:15 10° NNE visible
02 Jun 5.7 01:30:00 10° NW 01:33:23 16° N 01:36:45 10° NNE visible
02 Jun 5.7 03:16:26 10° NNW 03:20:02 17° NNE 03:23:42 10° NE visible
02 Jun 4.8 23:29:47 10° W 23:34:50 31° NW 23:39:53 10° NNE visible
03 Jun 5.7 01:17:36 10° NW 01:21:01 16° N 01:24:23 10° NNE visible
03 Jun 5.8 03:04:04 10° NNW 03:07:40 17° NNE 03:11:20 10° NE visible
03 Jun 4.9 23:17:24 10° W 23:22:27 31° NW 23:27:30 10° NNE visible
04 Jun 5.8 01:05:14 10° NW 01:08:38 16° NNW 01:12:01 10° NNE visible
04 Jun 5.8 02:51:41 10° NNW 02:55:17 17° NNE 02:58:57 10° NE visible
04 Jun 4.9 23:05:01 10° W 23:10:05 31° NW 23:15:08 10° NNE visible
05 Jun 5.8 00:52:51 10° NW 00:56:16 16° NNW 00:59:38 10° NNE visible
05 Jun 5.9 02:39:19 10° NNW 02:42:55 17° NNE 02:46:34 10° NE visible
05 Jun 4.9 22:52:39 10° W 22:57:43 31° NW 23:02:46 10° NNE visible
06 Jun 5.9 00:40:29 10° NW 00:43:54 16° NNW 00:47:16 10° NNE visible
06 Jun 5.9 02:26:57 10° NNW 02:30:33 17° NNE 02:34:12 10° NE visible
06 Jun 5.0 22:40:16 10° W 22:45:20 31° NW 22:50:24 10° NNE visible
